SQ5SUI-3 Weather Reports


time (UTC)temp
C
wind
direction
speed
KPH
gust
KPH
rain 1hr
cm
rain 24hr
cm
rain mn
cm
humidity
%
barometer
mb
20260506140330 26 208 9.7 17.7 0.00 0.00 0.00 31 1022.6
20260506133330 27 192 4.8 16.1 0.00 0.00 0.00 29 1022.4
20260506130329 25 184 6.4 22.5 0.00 0.00 0.00 32 1022.1
20260506123328 25 206 4.8 17.7 0.00 0.00 0.00 35 1021.9
20260506120328 25 190 8.0 24.1 0.00 0.00 0.00 38 1021.7
20260506113330 25 181 8.0 22.5 0.00 0.00 0.00 36 1021.6
20260506110328 25 191 14.5 20.9 0.00 0.00 0.00 38 1021.6
20260506103329 25 165 4.8 30.6 0.00 0.00 0.00 35 1021.6
20260506100329 25 178 9.7 17.7 0.00 0.00 0.00 36 1021.4
20260506093329 25 195 8.0 14.5 0.00 0.00 0.00 34 1021.3
20260506090329 23 207 9.7 17.7 0.00 0.00 0.00 34 1021.5
20260506083330 23 218 4.8 11.3 0.00 0.00 0.00 37 1021.4
20260506080330 23 166 4.8 12.9 0.00 0.00 0.00 35 1021.6
20260506073328 22 189 3.2 9.7 0.00 0.00 0.00 36 1021.4
20260506070329 20 190 4.8 9.7 0.00 0.00 0.00 40 1021.0
20260506060328 16 231 1.6 4.8 0.00 0.00 0.00 51 1021.0
20260506050328 16 126 3.2 11.3 0.00 0.00 0.00 51 1021.3
20260506043329 15 136 4.8 8.0 0.00 0.00 0.00 54 1021.0
20260506040329 12 45 0.0 3.2 0.00 0.00 0.00 59 1020.9
20260506033328 12 181 0.0 1.6 0.00 0.00 0.00 58 1021.1
20260506030328 12 139 1.6 4.8 0.00 0.00 0.00 57 1021.0
20260506023330 13 45 0.0 0.0 0.00 0.00 0.00 52 1021.1
20260506020328 13 314 0.0 0.0 0.00 0.00 0.00 50 1020.7
20260506013330 13 168 0.0 4.8 0.00 0.00 0.00 52 1020.6
20260506010330 13 163 1.6 4.8 0.00 0.00 0.00 52 1020.8
20260506003329 12 168 1.6 8.0 0.00 0.00 0.00 53 1020.7
20260506000330 13 161 1.6 4.8 0.00 0.00 0.00 52 1020.9
20260505233329 13 166 3.2 6.4 0.00 0.00 0.00 51 1020.9
20260505230329 13 186 1.6 6.4 0.00 0.00 0.00 51 1021.3
20260505223330 14 166 1.6 6.4 0.00 0.00 0.00 48 1021.3
20260505220330 15 163 1.6 8.0 0.00 0.00 0.00 46 1021.3
20260505213329 15 168 1.6 4.8 0.00 0.00 0.00 46 1021.5
20260505210329 16 176 3.2 4.8 0.00 0.00 0.00 44 1021.4
20260505203328 17 170 1.6 9.7 0.00 0.00 0.00 39 1021.5
20260505200328 17 201 3.2 4.8 0.00 0.00 0.00 39 1021.7
20260505193329 17 165 1.6 4.8 0.00 0.00 0.00 39 1022.6
20260505190328 20 146 4.8 8.0 0.00 0.00 0.00 34 1022.7
20260505183329 20 156 3.2 8.0 0.00 0.00 0.00 31 1023.1
20260505180328 22 137 4.8 9.7 0.00 0.00 0.00 22 1023.5
20260505173328 23 139 3.2 8.0 0.00 0.00 0.00 21 1023.1
20260505170327 25 152 4.8 9.7 0.00 0.00 0.00 19 1023.1
20260505163328 26 141 3.2 6.4 0.00 0.00 0.00 10 1022.7
20260505153059 25 149 4.8 14.5 0.00 0.00 0.00 10 1022.9